Weather History for Tanagra, Greece

Change the Weather History Date:

Thursday, November 7, 2013

  Actual Average (LGEL) Record (LGEL)
Temperature  
Mean Temperature 58 °F -  
Max Temperature 68 °F 61 °F 77 °F (2012)
Min Temperature 48 °F 48 °F 44 °F (2006)
Degree Days  
Heating Degree Days 7    
Growing Degree Days 8 (Base 50)    
Moisture  
Dew Point 51 °F    
Average Humidity 78    
Maximum Humidity 100    
Minimum Humidity 40    
Precipitation  
Precipitation 0.00 in - - ()
Sea Level Pressure  
Sea Level Pressure 29.96 in    
Wind  
Wind Speed 5 mph ()    
Max Wind Speed 17 mph    
Max Gust Speed -    
Visibility 6.1 miles    
Events Rain    
Averages and records for this station are not official NWS values.
T = Trace of Precipitation, MM = Missing Value Source: Averaged Metar Reports

Daily Weather History Graph

Daily Weather History Graph

Search for Another Location

Airport:

Trip Planner

Search our weather history database for the weather conditions in past years. The results will help you decide how hot, cold, wet, or windy it might be!

Date:

Astronomy

Nov. 07, 2013 Rise Set
Actual Time 6:58 AM EET 5:20 PM EET
Civil Twilight 6:30 AM EET 5:47 PM EET
Nautical Twilight 5:59 AM EET 6:19 PM EET
Astronomical Twilight 5:28 AM EET 6:50 PM EET
Moon 10:50 AM EET (11/7) 9:11 PM EET (11/7)
Length of Visible Light 11h 17m
Length of Day
10h 21m
Waxing Crescent, 19% of the Moon is Illuminated
Nov 7
Waxing Crescent
Nov 10
First Quarter
Nov 17
Full
Nov 25
Last Quarter
Dec 3
New

Hourly Weather History & Observations

Time (EET) Temp. Dew Point Humidity Pressure Visibility Wind Dir Wind Speed Gust Speed Precip Events Conditions
12:50 AM 57.2 °F 55.4 °F 94% 29.71 in 6.2 mi Calm Calm - N/A   Scattered Clouds
1:50 AM 55.4 °F 55.4 °F 100% 29.74 in 6.2 mi NW 4.6 mph - N/A   Scattered Clouds
3:50 AM 57.2 °F 57.2 °F 100% 29.77 in 6.2 mi Calm Calm - N/A   Scattered Clouds
4:50 AM 59.0 °F 59.0 °F 100% 29.80 in 6.2 mi NNW 4.6 mph - N/A Rain Light Rain
5:20 AM 60.8 °F 59.0 °F 94% 29.80 in 6.2 mi North 4.6 mph - N/A Rain Light Rain
6:50 AM 60.8 °F 53.6 °F 77% 29.83 in 6.2 mi NNW 10.4 mph - N/A   Light Drizzle
7:50 AM 60.8 °F 53.6 °F 77% 29.83 in 6.2 mi NNW 17.3 mph - N/A   Light Drizzle
8:50 AM 60.8 °F 55.4 °F 82% 29.92 in 6.2 mi NNW 17.3 mph - N/A Rain Light Rain
9:50 AM 62.6 °F 55.4 °F 77% 29.95 in 5.0 mi NNW 11.5 mph - N/A   Light Drizzle
10:50 AM 60.8 °F 59.0 °F 94% 29.95 in 5.0 mi NW 9.2 mph - N/A   Light Drizzle
11:20 AM 62.6 °F 57.2 °F 82% 29.98 in 6.2 mi NW 13.8 mph - N/A   Mostly Cloudy
12:50 PM 66.2 °F 53.6 °F 64% 30.01 in 6.2 mi North 12.7 mph - N/A   Scattered Clouds
1:50 PM 66.2 °F 48.2 °F 52% 30.01 in 6.2 mi North 13.8 mph - N/A   Partly Cloudy
2:20 PM 66.2 °F 44.6 °F 46% 30.01 in 6.2 mi North 12.7 mph - N/A   Partly Cloudy
3:50 PM 68.0 °F 42.8 °F 40% 30.04 in 6.2 mi North 8.1 mph - N/A   Partly Cloudy
4:50 PM 64.4 °F 44.6 °F 49% 30.04 in 6.2 mi Calm Calm - N/A   Partly Cloudy
5:50 PM 57.2 °F 48.2 °F 72% 30.04 in 6.2 mi Calm Calm - N/A   Partly Cloudy
6:50 PM 55.4 °F 46.4 °F 72% 30.06 in - Calm Calm - N/A   Clear
7:50 PM 51.8 °F 48.2 °F 88% 30.09 in - Calm Calm - N/A   Clear
8:50 PM 51.8 °F 46.4 °F 82% 30.09 in - Calm Calm - N/A   Clear
9:50 PM 48.2 °F 46.4 °F 93% 30.12 in - Calm Calm - N/A   Clear
10:50 PM 48.2 °F 44.6 °F 87% 30.12 in - Calm Calm - N/A   Clear
11:50 PM 50.0 °F 42.8 °F 76% 30.12 in - Calm Calm - N/A   Clear